Simultaneous Nadir Overpasses (SNOs) Predictions

Prediction of SNOs between NOAA-19 and METOP-C Satellite Orbit:

Table of predicted SNOs for the next 14.0 days since TLE Epoch: 1/21/2023
Index Date (NOAA-19) Time (NOAA-19) Lat,Lon (NOAA-19) SZA (NOAA-19 ) Date (METOP-C) Time (METOP-C) Lat,Lon (METOP-C) SZA (METOP-C ) Distance(km) Time Diff (sec)
1 01/21/2023 07:25:26 80.92, 103.23 102.12 01/21/2023 07:26:39 80.92, 103.32 102.15 1.61 73
2 01/21/2023 08:16:27 -80.92, -89.11 77.86 01/21/2023 08:17:19 -80.92, -89.25 77.85 2.44 52
3 01/21/2023 09:07:24 80.92, 78.30 102.15 01/21/2023 09:08:00 80.93, 78.21 102.16 1.65 36
4 01/21/2023 09:58:26 -80.92,-114.43 77.86 01/21/2023 09:58:40 -80.93,-114.35 77.84 1.75 14
5 01/21/2023 10:49:24 80.92, 52.61 102.12 01/21/2023 10:49:22 80.92, 52.74 102.13 2.32 2
6 01/21/2023 11:40:25 -80.92,-139.74 77.86 01/21/2023 11:40:02 -80.93,-139.82 77.87 1.39 23
7 01/21/2023 12:31:23 80.92, 27.30 102.12 01/21/2023 12:30:44 80.92, 27.28 102.10 0.86 39
8 01/21/2023 13:22:25 -80.92,-165.43 77.89 01/21/2023 13:21:24 -80.92,-165.28 77.90 2.73 61
9 02/01/2023 17:05:57 80.92, -41.72 99.19 02/01/2023 17:06:59 80.92, -41.79 99.20 1.59 62
10 02/01/2023 17:56:56 -80.92, 125.67 80.81 02/01/2023 17:57:40 -80.92, 125.59 80.81 1.54 44
11 02/01/2023 18:47:56 80.92, -67.04 99.19 02/01/2023 18:48:20 80.93, -66.91 99.21 2.36 24
12 02/01/2023 19:38:55 -80.92, 100.34 80.82 02/01/2023 19:39:01 -80.93, 100.47 80.80 2.44 6
13 02/01/2023 20:29:55 80.92, -92.36 99.18 02/01/2023 20:29:42 80.92, -92.38 99.17 0.55 13
14 02/01/2023 21:20:54 -80.92, 75.01 80.83 02/01/2023 21:20:23 -80.92, 75.00 80.84 0.22 31
15 02/01/2023 22:11:54 80.92,-117.69 99.17 02/01/2023 22:11:04 80.91,-117.86 99.13 3.25 50



Historial Predications of SNOs between NOAA-19 and METOP-C
